Location: B?ogocice
(50.2413°N, 20.2361°E)
Time: 00:37:06
(UTC+00:00)

Cosmos 2058 Rocket - Pass Details

Date: 15 June 2024
Orbit: 606 x 636 km, 82.5° (Epoch: 18 July)

Event Time Altitude Azimuth Distance (km) Brightness Sun altitude
Rises 01:30:43 0° 351° (N) 2,933 7.2 -7.3°
Reaches altitude 10° 01:33:00 10° 355° (N) 2,016 6.4 -7.0°
Maximum altitude 01:37:27 66° 78° (ENE) 683 3.5 -6.6°
Drops below altitude 10° 01:41:49 10° 161° (SSE) 1,980 5.4 -6.1°
Sets 01:44:02 0° 164° (SSE) 2,876 6.2 -5.9°
